Regional Weather Roundup
Issued by NWS

Home | Current Version | Previous Version | Graphics & Text | Print | Product List | Glossary On
Versions: 1 2 3 4 5 6 7 8 9 10 11 12 13 14 15 16 17 18 19 20 21 22 23 24 25 26 27 28 29 30 31 32 33 34 35 36 37 38 39 40 41 42 43 44 45 46 47 48 49 50
608
ASUS43 KFSD 252310
RWRSD

WEATHER ROUNDUP FOR SOUTH DAKOTA
NATIONAL WEATHER SERVICE SIOUX FALLS SD
500 PM CST SAT FEB 25 2017

NOTE: "FAIR" INDICATES FEW OR NO CLOUDS BELOW 12,000 FEET WITH NO
SIGNIFICANT WEATHER AND/OR OBSTRUCTIONS TO VISIBILITY.


SDZ001>005-009-010-012>017-260000-
NORTHWEST AND NORTH CENTRAL SOUTH DAKOTA

CITY           SKY/WX    TMP DP  RH WIND       PRES   REMARKS
BUFFALO          N/A     31  17  56 W28G36    29.63F WCI  17
FAITH            N/A     32  17  54 W12       29.73F WCI  23
MOBRIDGE       SUNNY     33  21  61 N8        29.75F WCI  26
$$

SDZ012>016-024>037-041>051-057-063-072>074-260000-
SOUTHWEST AND SOUTH CENTRAL SOUTH DAKOTA

CITY           SKY/WX    TMP DP  RH WIND       PRES   REMARKS
RAPID CTY ARPT PTSUNNY   31  19  61 SE3       29.73F
PIERRE         CLOUDY    34  25  69 N12       29.78F WCI  25
CUSTER         PTSUNNY   19  11  70 W12       29.65F WCI   7
ELLSWORTH AFB  CLOUDY    30  25  80 E3        29.72
PHILIP         CLOUDY    37  12  35 NW9       29.77F
PINE RIDGE     MOSUNNY   29  16  58 W10       29.80F WCI  20
SPEARFISH      FAIR      30  16  55 SW14      29.69F WCI  20
WINNER         FAIR      34  23  64 SW13      29.80F WCI  25
$$

SDZ004>011-016>023-039-040-260000-
NORTHEAST SOUTH DAKOTA

CITY           SKY/WX    TMP DP  RH WIND       PRES   REMARKS
ABERDEEN       CLOUDY    37  17  44 W8        29.76F
WATERTOWN      MOSUNNY   32  20  61 SW14      29.77F WCI  22
BROOKINGS      SUNNY     31  21  66 S16       29.81F WCI  20
SISSETON         N/A     38  19  46 W17       29.75F
$$

SDZ017-020-022-023-036>040-048>070-260000-
SOUTHEAST SOUTH DAKOTA

CITY           SKY/WX    TMP DP  RH WIND       PRES   REMARKS
SIOUX FALLS    PTSUNNY   27  17  66 S14       29.88F WCI  16
HURON          CLOUDY    39  19  44 W9        29.79F
CHAMBERLAIN    CLOUDY    37  26  65 S7        29.80F
MITCHELL       CLOUDY    31  22  69 S13       29.85F WCI  21
YANKTON        SUNNY     30  18  59 S14       29.89F WCI  20
$$

ABBREVIATIONS USED IN REMARKS
   TC - TEMPERATURE IN CELSIUS
  WCI - WIND CHILL INDEX
   HX - HEAT INDEX
  VSB - VISIBILITY





USA.gov is the U.S. government's official web portal to all federal, state and local government web resources and services.